This is the latest recevied weather packets stored in our database for station/object KD7MPG-3. If no packets are shown the sender has not sent any weather packets the latest 10 day(s).
| Time | Temp. | Humidity | Pressure | Rain* | Wind** | Luminosity | Snow |
|---|---|---|---|---|---|---|---|
| 1777225871 | 16.67° C | 53% | 1019.1 hPa | 0 mm | - | - | - |
| 1777225567 | 16.11° C | 55% | 1019.1 hPa | 0 mm | - | - | - |
| 1777225265 | 16.11° C | 57% | 1019 hPa | 0 mm | - | - | - |
| 1777224966 | 15.56° C | 54% | 1019 hPa | 0 mm | - | - | - |
| 1777224663 | 15.56° C | 55% | 1019.1 hPa | 0 mm | - | - | - |
| 1777224361 | 15° C | 55% | 1018.9 hPa | 0 mm | - | - | - |
| 1777224059 | 15° C | 57% | 1018.9 hPa | 0 mm | - | - | - |
| 1777223759 | 14.44° C | 56% | 1018.8 hPa | 0 mm | - | - | - |
| 1777223459 | 14.44° C | 56% | 1018.8 hPa | 0 mm | - | - | - |
| 1777223160 | 14.44° C | 57% | 1018.7 hPa | 0 mm | - | - | - |
| 1777222853 | 14.44° C | 59% | 1018.8 hPa | 0 mm | - | - | - |
| 1777222553 | 13.89° C | 58% | 1018.8 hPa | 0 mm | - | - | - |
| 1777222253 | 13.89° C | 60% | 1018.8 hPa | 0 mm | - | - | - |
| 1777221954 | 13.89° C | 60% | 1018.8 hPa | 0 mm | - | - | - |
| 1777221654 | 13.33° C | 60% | 1018.5 hPa | 0 mm | - | - | - |
| 1777221352 | 13.33° C | 61% | 1018.5 hPa | 0 mm | - | - | - |
| 1777221051 | 12.78° C | 64% | 1018.4 hPa | 0 mm | - | - | - |
| 1777220749 | 12.78° C | 65% | 1018.4 hPa | 0 mm | - | - | - |
| 1777220447 | 12.22° C | 64% | 1018.3 hPa | 0 mm | - | - | - |
| 1777220148 | 12.22° C | 66% | 1018.4 hPa | 0 mm | - | - | - |
| 1777219847 | 11.67° C | 67% | 1018.4 hPa | 0 mm | - | - | - |
| 1777219547 | 11.67° C | 70% | 1018.4 hPa | 0 mm | - | - | - |
| 1777219245 | 11.11° C | 70% | 1018.4 hPa | 0 mm | - | - | - |
| 1777218945 | 11.11° C | 71% | 1018.4 hPa | 0 mm | - | - | - |
| 1777218646 | 10.56° C | 72% | 1018.4 hPa | 0 mm | - | - | - |
* Rain latest hour (hover to see other rain measurements)
** Current wind speed in m/s (hover to see current wind gust speed)